Time,TemperatureF,DewpointF,PressureIn,WindDirection,WindDirectionDegrees,WindSpeedMPH,WindSpeedGustMPH,Humidity,HourlyPrecipIn,Conditions,Clouds,dailyrainin,SoftwareType,DateUTC
2013-01-23 00:01:00,8.6,-2.0,30.24,SW,219,1.0,-999.0,62,-99.99,,,0.00,weatherlink.com 1.10,2013-01-23 05:01:00,
2013-01-23 00:32:00,8.4,-2.0,30.23,West,273,1.0,-999.0,63,-99.99,,,0.00,weatherlink.com 1.10,2013-01-23 05:32:00,
2013-01-23 01:01:00,8.3,-2.0,30.24,WSW,238,0.0,-999.0,64,-99.99,,,0.00,weatherlink.com 1.10,2013-01-23 06:01:00,
2013-01-23 01:16:00,8.3,-1.0,30.24,WSW,252,1.0,-999.0,65,-99.99,,,0.00,weatherlink.com 1.10,2013-01-23 06:16:00,
2013-01-23 01:46:00,8.2,-1.0,30.25,West,277,0.0,-999.0,66,-99.99,,,0.00,weatherlink.com 1.10,2013-01-23 06:46:00,
2013-01-23 02:16:00,8.4,-1.0,30.25,WSW,242,2.0,-999.0,66,-99.99,,,0.00,weatherlink.com 1.10,2013-01-23 07:16:00,
2013-01-23 02:32:00,8.3,-1.0,30.26,SW,219,4.0,-999.0,66,-99.99,,,0.00,weatherlink.com 1.10,2013-01-23 07:32:00,
2013-01-23 02:47:00,8.2,-1.0,30.26,SSW,211,4.0,-999.0,67,-99.99,,,0.00,weatherlink.com 1.10,2013-01-23 07:47:00,
2013-01-23 03:02:00,8.1,-1.0,30.26,SW,229,1.0,-999.0,67,-99.99,,,0.00,weatherlink.com 1.10,2013-01-23 08:02:00,
2013-01-23 03:17:00,7.9,-1.0,30.26,SW,216,2.0,-999.0,68,-99.99,,,0.00,weatherlink.com 1.10,2013-01-23 08:17:00,
2013-01-23 03:32:00,7.6,-1.0,30.26,SSW,211,1.0,-999.0,68,-99.99,,,0.00,weatherlink.com 1.10,2013-01-23 08:32:00,
2013-01-23 03:47:00,7.3,-1.0,30.26,SSW,211,0.0,-999.0,69,-99.99,,,0.00,weatherlink.com 1.10,2013-01-23 08:47:00,
2013-01-23 04:17:00,8.1,0.0,30.25,West,268,2.0,-999.0,69,-99.99,,,0.00,weatherlink.com 1.10,2013-01-23 09:17:00,
2013-01-23 04:32:00,8.2,0.0,30.26,West,259,1.0,-999.0,69,-99.99,,,0.00,weatherlink.com 1.10,2013-01-23 09:32:00,
2013-01-23 05:02:00,8.8,0.0,30.26,West,267,3.0,-999.0,68,-99.99,,,0.00,weatherlink.com 1.10,2013-01-23 10:02:00,
2013-01-23 05:17:00,9.0,0.0,30.26,SSW,213,6.0,-999.0,68,-99.99,,,0.00,weatherlink.com 1.10,2013-01-23 10:17:00,
2013-01-23 05:32:00,8.9,0.0,30.26,SW,230,2.0,-999.0,67,-99.99,,,0.00,weatherlink.com 1.10,2013-01-23 10:32:00,
2013-01-23 05:48:00,8.5,0.0,30.27,SW,224,1.0,-999.0,68,-99.99,,,0.00,weatherlink.com 1.10,2013-01-23 10:48:00,
2013-01-23 06:03:00,8.2,0.0,30.27,SW,231,2.0,-999.0,69,-99.99,,,0.00,weatherlink.com 1.10,2013-01-23 11:03:00,
2013-01-23 06:18:00,7.9,0.0,30.27,SW,225,1.0,-999.0,70,-99.99,,,0.00,weatherlink.com 1.10,2013-01-23 11:18:00,
2013-01-23 06:33:00,7.8,0.0,30.27,SW,218,2.0,-999.0,71,-99.99,,,0.00,weatherlink.com 1.10,2013-01-23 11:33:00,
2013-01-23 06:48:00,7.6,0.0,30.27,SW,215,1.0,-999.0,71,-99.99,,,0.00,weatherlink.com 1.10,2013-01-23 11:48:00,
2013-01-23 07:03:00,7.4,0.0,30.27,SW,223,1.0,-999.0,71,-99.99,,,0.00,weatherlink.com 1.10,2013-01-23 12:03:00,
2013-01-23 07:18:00,7.3,0.0,30.27,SW,215,0.0,-999.0,72,-99.99,,,0.00,weatherlink.com 1.10,2013-01-23 12:18:00,
2013-01-23 07:33:00,7.3,0.0,30.27,SSW,211,1.0,-999.0,72,-99.99,,,0.00,weatherlink.com 1.10,2013-01-23 12:33:00,
2013-01-23 07:48:00,7.3,0.0,30.27,SW,217,1.0,-999.0,72,-99.99,,,0.00,weatherlink.com 1.10,2013-01-23 12:48:00,
2013-01-23 08:03:00,7.4,0.0,30.27,SW,232,3.0,-999.0,72,-99.99,,,0.00,weatherlink.com 1.10,2013-01-23 13:03:00,
2013-01-23 08:18:00,7.7,0.0,30.28,SW,223,3.0,-999.0,72,-99.99,,,0.00,weatherlink.com 1.10,2013-01-23 13:18:00,
2013-01-23 08:33:00,8.4,1.0,30.28,WSW,254,4.0,-999.0,71,-99.99,,,0.00,weatherlink.com 1.10,2013-01-23 13:33:00,
2013-01-23 08:48:00,9.1,1.0,30.28,NW,323,3.0,-999.0,70,-99.99,,,0.00,weatherlink.com 1.10,2013-01-23 13:48:00,
2013-01-23 09:04:00,9.8,2.0,30.29,SW,236,6.0,-999.0,69,-99.99,,,0.00,weatherlink.com 1.10,2013-01-23 14:04:00,
2013-01-23 09:19:00,10.4,2.0,30.29,WSW,246,2.0,-999.0,68,-99.99,,,0.00,weatherlink.com 1.10,2013-01-23 14:19:00,
2013-01-23 09:34:00,10.7,1.0,30.29,SSW,213,6.0,-999.0,66,-99.99,,,0.00,weatherlink.com 1.10,2013-01-23 14:34:00,
2013-01-23 09:49:00,11.2,2.0,30.30,NW,307,3.0,-999.0,66,-99.99,,,0.00,weatherlink.com 1.10,2013-01-23 14:49:00,
2013-01-23 10:04:00,12.1,2.0,30.30,WNW,288,6.0,-999.0,65,-99.99,,,0.00,weatherlink.com 1.10,2013-01-23 15:04:00,
2013-01-23 10:19:00,12.7,3.0,30.30,West,259,2.0,-999.0,64,-99.99,,,0.00,weatherlink.com 1.10,2013-01-23 15:19:00,
2013-01-23 10:34:00,13.6,3.0,30.30,WNW,296,3.0,-999.0,63,-99.99,,,0.00,weatherlink.com 1.10,2013-01-23 15:34:00,
2013-01-23 10:49:00,14.3,3.0,30.29,West,269,1.0,-999.0,60,-99.99,,,0.00,weatherlink.com 1.10,2013-01-23 15:49:00,
2013-01-23 11:04:00,14.3,2.0,30.29,NW,313,2.0,-999.0,59,-99.99,,,0.00,weatherlink.com 1.10,2013-01-23 16:04:00,
2013-01-23 11:20:00,14.9,2.0,30.27,West,277,3.0,-999.0,58,-99.99,,,0.00,weatherlink.com 1.10,2013-01-23 16:20:00,
2013-01-23 11:34:00,15.9,3.0,30.26,SSW,212,8.0,-999.0,57,-99.99,,,0.00,weatherlink.com 1.10,2013-01-23 16:34:00,
2013-01-23 11:50:00,15.6,3.0,30.25,WNW,282,4.0,-999.0,57,-99.99,,,0.00,weatherlink.com 1.10,2013-01-23 16:50:00,
2013-01-23 12:06:00,15.8,3.0,30.24,NW,305,4.0,-999.0,58,-99.99,,,0.00,weatherlink.com 1.10,2013-01-23 17:06:00,
2013-01-23 12:22:00,16.0,4.0,30.23,West,268,3.0,-999.0,58,-99.99,,,0.00,weatherlink.com 1.10,2013-01-23 17:22:00,
2013-01-23 12:36:00,15.7,4.0,30.23,SSW,208,4.0,-999.0,59,-99.99,,,0.00,weatherlink.com 1.10,2013-01-23 17:36:00,
2013-01-23 12:50:00,15.8,4.0,30.22,WSW,249,2.0,-999.0,59,-99.99,,,0.00,weatherlink.com 1.10,2013-01-23 17:50:00,
2013-01-23 13:05:00,15.1,5.0,30.22,WNW,282,2.0,-999.0,64,-99.99,,,0.00,weatherlink.com 1.10,2013-01-23 18:05:00,
2013-01-23 13:21:00,15.2,3.0,30.22,SSW,211,3.0,-999.0,59,-99.99,,,0.00,weatherlink.com 1.10,2013-01-23 18:21:00,
2013-01-23 13:37:00,15.5,3.0,30.21,WNW,298,2.0,-999.0,58,-99.99,,,0.00,weatherlink.com 1.10,2013-01-23 18:37:00,
2013-01-23 13:51:00,15.3,3.0,30.21,West,280,5.0,-999.0,59,-99.99,,,0.00,weatherlink.com 1.10,2013-01-23 18:51:00,
2013-01-23 14:06:00,15.3,4.0,30.21,North,360,4.0,-999.0,60,-99.99,,,0.00,weatherlink.com 1.10,2013-01-23 19:06:00,
2013-01-23 14:22:00,15.4,3.0,30.21,NW,309,4.0,-999.0,57,-99.99,,,0.00,weatherlink.com 1.10,2013-01-23 19:22:00,
2013-01-23 14:37:00,15.6,3.0,30.21,West,271,3.0,-999.0,57,-99.99,,,0.00,weatherlink.com 1.10,2013-01-23 19:37:00,
2013-01-23 14:52:00,15.7,3.0,30.21,West,263,6.0,-999.0,58,-99.99,,,0.00,weatherlink.com 1.10,2013-01-23 19:52:00,
2013-01-23 15:07:00,16.4,3.0,30.21,NNW,329,8.0,-999.0,57,-99.99,,,0.00,weatherlink.com 1.10,2013-01-23 20:07:00,
2013-01-23 15:22:00,17.3,4.0,30.20,West,263,6.0,-999.0,56,-99.99,,,0.00,weatherlink.com 1.10,2013-01-23 20:22:00,
2013-01-23 15:37:00,17.2,4.0,30.21,WSW,253,5.0,-999.0,56,-99.99,,,0.00,weatherlink.com 1.10,2013-01-23 20:37:00,
2013-01-23 15:52:00,16.8,3.0,30.21,WSW,238,3.0,-999.0,54,-99.99,,,0.00,weatherlink.com 1.10,2013-01-23 20:52:00,
2013-01-23 16:08:00,16.7,3.0,30.20,West,263,4.0,-999.0,55,-99.99,,,0.00,weatherlink.com 1.10,2013-01-23 21:08:00,
2013-01-23 16:23:00,17.5,4.0,30.20,SW,219,1.0,-999.0,55,-99.99,,,0.00,weatherlink.com 1.10,2013-01-23 21:23:00,
2013-01-23 16:38:00,17.1,3.0,30.20,West,263,2.0,-999.0,54,-99.99,,,0.00,weatherlink.com 1.10,2013-01-23 21:38:00,
2013-01-23 16:53:00,16.7,3.0,30.20,SSW,213,1.0,-999.0,55,-99.99,,,0.00,weatherlink.com 1.10,2013-01-23 21:53:00,
2013-01-23 17:08:00,16.1,2.0,30.20,West,272,2.0,-999.0,55,-99.99,,,0.00,weatherlink.com 1.10,2013-01-23 22:08:00,
2013-01-23 17:24:00,15.3,2.0,30.21,NW,315,2.0,-999.0,56,-99.99,,,0.00,weatherlink.com 1.10,2013-01-23 22:24:00,
2013-01-23 17:38:00,14.9,2.0,30.21,West,267,2.0,-999.0,58,-99.99,,,0.00,weatherlink.com 1.10,2013-01-23 22:38:00,
2013-01-23 17:53:00,14.6,3.0,30.21,West,276,1.0,-999.0,59,-99.99,,,0.00,weatherlink.com 1.10,2013-01-23 22:53:00,
2013-01-23 18:09:00,14.3,3.0,30.21,WSW,244,1.0,-999.0,61,-99.99,,,0.00,weatherlink.com 1.10,2013-01-23 23:09:00,
2013-01-23 18:24:00,14.0,3.0,30.21,WSW,244,0.0,-999.0,62,-99.99,,,0.00,weatherlink.com 1.10,2013-01-23 23:24:00,
2013-01-23 18:40:00,13.5,3.0,30.21,WSW,244,0.0,-999.0,64,-99.99,,,0.00,weatherlink.com 1.10,2013-01-23 23:40:00,
2013-01-23 18:55:00,12.8,3.0,30.21,WSW,244,0.0,-999.0,65,-99.99,,,0.00,weatherlink.com 1.10,2013-01-23 23:55:00,
2013-01-23 19:10:00,12.0,3.0,30.20,WSW,244,0.0,-999.0,67,-99.99,,,0.00,weatherlink.com 1.10,2013-01-24 00:10:00,
2013-01-23 19:25:00,10.8,3.0,30.20,WSW,244,0.0,-999.0,70,-99.99,,,0.00,weatherlink.com 1.10,2013-01-24 00:25:00,
2013-01-23 19:40:00,10.1,2.0,30.20,WSW,244,0.0,-999.0,70,-99.99,,,0.00,weatherlink.com 1.10,2013-01-24 00:40:00,
2013-01-23 19:55:00,9.4,2.0,30.20,WSW,244,0.0,-999.0,72,-99.99,,,0.00,weatherlink.com 1.10,2013-01-24 00:55:00,
2013-01-23 20:10:00,8.7,2.0,30.19,WSW,244,0.0,-999.0,73,-99.99,,,0.00,weatherlink.com 1.10,2013-01-24 01:10:00,
2013-01-23 20:25:00,8.2,1.0,30.20,WSW,244,0.0,-999.0,73,-99.99,,,0.00,weatherlink.com 1.10,2013-01-24 01:25:00,
2013-01-23 20:41:00,7.6,1.0,30.20,WSW,244,0.0,-999.0,74,-99.99,,,0.00,weatherlink.com 1.10,2013-01-24 01:41:00,
2013-01-23 20:55:00,7.2,1.0,30.20,WSW,244,0.0,-999.0,76,-99.99,,,0.00,weatherlink.com 1.10,2013-01-24 01:55:00,
2013-01-23 21:11:00,6.8,1.0,30.20,WSW,244,0.0,-999.0,77,-99.99,,,0.00,weatherlink.com 1.10,2013-01-24 02:11:00,
2013-01-23 21:26:00,6.7,1.0,30.20,WSW,244,0.0,-999.0,78,-99.99,,,0.00,weatherlink.com 1.10,2013-01-24 02:26:00,
2013-01-23 21:41:00,6.5,1.0,30.20,WSW,244,0.0,-999.0,79,-99.99,,,0.00,weatherlink.com 1.10,2013-01-24 02:41:00,
2013-01-23 21:56:00,6.5,1.0,30.20,WSW,244,0.0,-999.0,79,-99.99,,,0.00,weatherlink.com 1.10,2013-01-24 02:56:00,
2013-01-23 22:11:00,6.7,2.0,30.20,WSW,244,0.0,-999.0,80,-99.99,,,0.00,weatherlink.com 1.10,2013-01-24 03:11:00,
2013-01-23 22:26:00,6.8,2.0,30.19,WSW,244,0.0,-999.0,80,-99.99,,,0.00,weatherlink.com 1.10,2013-01-24 03:26:00,
2013-01-23 22:41:00,6.9,2.0,30.19,WSW,244,0.0,-999.0,81,-99.99,,,0.00,weatherlink.com 1.10,2013-01-24 03:41:00,
2013-01-23 22:56:00,7.1,3.0,30.19,WSW,244,0.0,-999.0,82,-99.99,,,0.00,weatherlink.com 1.10,2013-01-24 03:56:00,
2013-01-23 23:11:00,7.6,4.0,30.19,WSW,244,0.0,-999.0,83,-99.99,,,0.00,weatherlink.com 1.10,2013-01-24 04:11:00,
2013-01-23 23:27:00,7.7,4.0,30.19,WSW,244,0.0,-999.0,83,-99.99,,,0.00,weatherlink.com 1.10,2013-01-24 04:27:00,
2013-01-23 23:42:00,7.9,6.0,30.18,WSW,244,0.0,-999.0,92,-99.99,,,0.00,weatherlink.com 1.10,2013-01-24 04:42:00,
2013-01-23 23:57:00,8.1,4.0,30.17,WSW,244,0.0,-999.0,83,-99.99,,,0.00,weatherlink.com 1.10,2013-01-24 04:57:00,